RH
23 21 20 19 23 29 26 22 24 28 33 51 62 65 77 89 88 68 66 58 67 55 36 27 23 23 20 15 13 10 11 14 11 7 7 8 8 6 4 3 4 5 6
25 22 28 32 29 28 30 31 33 30 47 59 67 82 93 86 76 69 60 71 51 34 29 25 24 17 15 11 11 14 12 10 10 10 8 5 4 4 4 4 4 5 6
34 36 33 36 43 43 36 30 31 49 59 75 86 97 83 74 70 66 73 47 35 31 27 23 17 13 12 15 13 10 10 10 9 5 4 5 5 5 5 5 7 8 12
40 45 52 53 49 39 32 32 49 65 77 91 94 82 75 63 73 72 46 36 33 29 22 18 15 16 15 12 11 10 9 5 4 5 5 5 7 12 20 21 21 23 21
53 55 58 58 46 33 28 66 76 85 96 93 78 64 54 79 69 46 38 35 28 22 20 19 17 13 12 12 12 8 4 5 6 6 9 14 18 18 18 33 50 61 78
58 68 74 56 29 46 77 90 89 94 81 54 55 56 82 68 45 40 35 28 23 21 19 14 14 14 13 12 6 4 6 6 12 13 16 16 18 52 80 85 92 90 96
71 81 50 36 66 88 94 92 96 53 53 54 58 86 65 46 43 35 28 23 20 16 15 16 15 14 11 4 4 6 7 14 15 16 15 48 74 85 86 95 100 100 100
58 37 56 89 95 97 97 90 49 53 54 68 87 60 47 43 33 26 22 20 18 16 17 16 14 9 4 6 6 7 12 14 16 24 75 81 82 87 86 88 90 100 100
61 88 95 92 96 97 60 49 55 53 80 80 58 50 43 30 26 23 19 11 11 13 16 14 7 4 6 6 8 12 14 17 44 87 86 86 91 93 86 82 89 93 100
91 85 95 100 69 49 57 55 57 87 72 56 52 40 30 27 24 9 9 10 13 14 12 6 4 7 6 12 13 14 17 65 89 97 99 100 97 96 88 86 85 87 90
94 100 67 50 66 65 54 72 82 70 60 51 38 32 30 26 12 11 13 14 13 11 5 5 7 6 12 16 16 24 76 84 93 96 98 100 99 98 100 96 95 90 92
71 55 74 78 61 58 81 80 73 62 50 38 33 31 24 16 12 12 14 16 13 5 6 8 6 11 16 15 34 84 86 90 96 96 94 93 99 100 100 100 100 100 97
78 79 71 50 75 79 82 76 61 51 37 35 31 22 16 14 14 12 14 12 5 6 8 7 10 15 16 57 85 88 88 91 92 95 99 99 92 93 96 100 100 100 100
71 52 58 84 74 86 78 61 51 38 37 33 26 19 14 14 13 12 10 5 6 7 7 9 14 16 60 78 82 85 87 88 87 82 62 40 25 32 57 89 100 100 100
52 87 71 74 86 77 62 50 42 40 34 27 23 17 14 14 12 10 5 7 8 8 7 14 16 61 87 89 86 82 83 70 43 30 26 28 22 19 15 24 86 100 93
92 60 80 87 78 63 50 46 42 35 28 23 18 16 16 15 12 6 8 8 8 7 13 16 60 85 88 88 90 70 32 23 26 37 36 33 26 19 15 14 24 99 96
60 83 88 76 65 53 50 45 38 30 23 19 18 18 16 15 7 8 9 9 8 11 16 67 86 90 86 59 23 20 22 27 35 40 36 33 30 24 15 14 17 89 98
85 87 74 68 60 56 49 40 31 23 19 19 19 18 16 8 8 9 9 10 11 16 69 88 89 58 24 20 22 25 31 36 43 44 40 38 38 29 19 17 20 53 100
86 75 74 72 63 52 42 31 24 22 20 19 18 16 8 9 10 10 11 10 15 70 93 72 27 20 29 43 54 62 69 71 62 46 49 62 52 30 22 20 24 30 98
81 83 81 65 53 40 30 26 24 21 20 19 16 7 7 10 11 14 11 14 66 87 37 22 41 54 57 60 59 60 60 56 52 48 80 70 42 40 49 40 37 36 62
87 75 62 51 39 31 29 25 22 20 19 17 7 7 9 10 13 12 13 63 84 25 39 49 38 35 30 31 28 26 28 29 35 85 88 51 61 63 63 62 56 37 34
70 60 48 38 34 30 25 23 22 20 16 7 7 10 11 12 11 12 58 72 24 49 37 22 26 28 27 28 29 29 28 30 72 94 59 71 79 80 76 73 62 52 33
57 45 40 35 30 26 25 24 20 16 8 8 9 10 9 12 11 43 70 27 44 19 22 26 28 27 23 23 29 31 48 84 89 54 61 72 82 84 70 57 50 50 42
46 40 34 30 28 26 24 20 16 8 8 10 10 8 11 11 26 75 26 46 19 24 27 29 27 22 19 21 36 60 71 53 45 51 52 63 74 68 63 48 40 40 43
39 33 31 29 28 25 20 15 7 8 10 10 8 11 12 16 82 28 57 22 24 28 30 29 25 23 25 32 41 38 34 39 41 42 47 64 74 69 67 66 62 59 47
33 31 30 29 26 21 14 7 9 11 12 9 11 12 14 84 31 63 34 23 31 30 32 31 29 28 29 32 36 35 38 44 54 67 72 68 73 72 70 73 79 77 61
Wind_Speed
29 29 32 33 34 36 39 41 42 45 46 47 48 49 52 55 57 58 61 64 69 67 66 68 71 76 81 85 91 97 103 112 118 117 122 124 124 121 114 108 104 99 95
29 29 30 32 35 36 38 41 44 46 46 47 49 51 55 55 58 61 65 69 66 66 68 72 77 82 86 92 98 106 112 118 125 129 122 110 102 95 92 90 87 87 86
28 29 31 33 35 37 40 43 44 45 47 48 51 54 54 58 61 66 66 65 66 70 74 78 82 88 93 101 107 113 118 123 122 112 101 94 87 75 68 62 59 56 56
29 30 32 34 37 39 41 43 45 46 49 52 54 54 59 61 66 65 65 67 70 75 79 84 90 96 103 108 114 120 124 114 101 93 87 76 62 55 52 49 44 46 45
28 31 33 36 38 40 42 43 46 49 52 52 54 58 61 66 63 64 67 70 75 79 85 91 97 102 108 114 120 118 104 93 85 75 62 54 52 52 46 39 36 34 34
30 32 34 37 39 40 41 45 47 48 50 53 57 60 66 63 64 67 70 74 80 85 91 96 101 107 114 119 110 95 87 78 66 59 53 53 45 42 43 43 39 34 29
31 33 36 37 38 40 43 46 47 49 53 57 60 64 61 63 66 70 74 80 85 92 97 102 107 113 116 102 88 80 68 58 57 53 47 41 43 43 37 31 28 27 28
31 34 35 37 40 42 45 47 49 53 56 60 62 60 62 65 69 74 79 85 92 97 102 107 113 110 94 86 77 63 53 50 46 42 41 42 37 35 33 32 30 26 27
31 33 36 38 42 44 45 48 52 55 60 59 58 61 64 68 73 79 87 92 96 100 105 111 103 90 81 74 63 51 43 39 35 38 37 36 33 32 33 30 28 27 24
32 35 38 40 41 44 48 50 54 58 55 56 60 63 67 72 79 85 91 95 98 102 108 95 83 77 68 59 51 39 33 29 33 28 29 29 30 31 33 34 34 31 29
35 37 38 40 43 46 49 53 54 53 55 57 60 65 73 79 83 93 96 99 103 105 91 79 72 62 53 47 39 31 29 30 25 24 25 26 28 30 32 33 35 37 35
35 37 40 42 44 47 52 51 51 53 55 58 63 70 77 83 90 95 98 102 103 89 76 70 59 47 43 39 30 30 30 26 25 24 24 26 27 29 29 31 31 34 38
36 38 41 43 47 49 49 49 51 54 57 62 67 73 80 85 92 99 100 101 85 74 69 60 46 41 37 29 34 28 25 23 22 24 27 28 28 28 27 28 30 31 35
36 39 41 45 47 47 48 50 53 56 61 67 72 79 83 90 98 100 101 84 73 68 60 45 40 35 29 34 28 28 26 25 25 25 28 29 29 29 28 26 26 26 29
38 42 43 46 46 47 49 52 56 62 67 72 79 84 88 96 100 102 85 71 68 60 44 38 34 28 33 29 30 26 28 29 29 27 25 25 28 29 29 25 24 25 26
40 43 44 44 45 47 50 55 61 67 73 79 84 88 94 99 100 83 69 66 60 45 38 31 27 29 25 27 26 32 30 27 24 23 25 25 26 27 29 25 20 19 21
41 43 43 44 46 49 54 58 63 71 78 82 86 91 97 99 82 68 64 58 47 38 30 25 27 24 27 28 27 24 23 24 24 26 27 28 28 26 27 24 18 14 17
41 41 43 45 49 53 58 63 69 74 79 83 89 95 97 79 68 64 56 47 37 31 26 25 26 27 27 25 26 25 27 28 29 31 30 27 25 23 26 24 17 10 12
40 41 44 48 52 57 62 68 73 78 82 86 93 97 80 66 64 56 47 36 27 23 24 25 25 24 26 27 28 28 28 27 26 25 22 21 22 23 24 21 15 10 8
41 43 47 52 57 61 67 71 77 81 86 92 96 82 67 60 52 43 34 25 21 22 23 21 23 26 27 28 29 30 30 28 25 21 18 21 21 22 20 18 15 12 8
43 46 51 56 60 66 71 76 80 84 90 95 80 68 61 52 41 30 21 17 18 19 20 23 24 26 28 30 30 31 31 26 19 13 16 18 19 21 19 18 15 11 7
46 51 55 60 66 71 75 78 83 90 95 80 66 59 51 42 30 19 14 14 13 16 19 22 27 29 32 32 29 26 23 18 12 13 14 16 19 21 21 19 16 12 7
50 55 60 65 69 73 77 83 90 93 80 65 58 50 41 28 18 11 10 10 14 16 21 26 29 32 33 30 24 20 18 14 13 12 15 18 21 23 21 18 16 13 9
55 60 64 68 73 76 81 89 92 79 65 57 50 39 26 15 8 6 6 9 12 17 22 27 30 31 28 25 22 20 17 15 14 17 19 20 22 23 20 18 16 15 13
60 64 68 71 76 81 88 90 76 63 56 49 38 25 14 5 2 3 6 8 13 17 23 27 30 32 29 26 23 20 18 15 16 18 20 20 22 20 17 17 14 13 13
64 67 71 75 80 88 88 75 62 55 47 38 27 15 5 1 3 5 7 10 13 17 22 27 30 33 30 27 25 23 22 21 20 20 20 22 21 20 20 18 15 16 16
Wind_Direction
260 264 268 273 278 281 286 288 290 291 294 297 299 299 299 301 301 301 303 304 305 304 304 304 304 305 305 305 305 306 306 306 305 304 303 302 300 298 296 294 293 290 287
262 266 271 276 281 285 287 289 291 294 297 298 299 301 301 301 302 305 305 305 305 304 304 305 306 307 307 307 308 307 307 307 307 307 306 302 300 298 296 292 289 288 288
264 269 275 279 283 286 289 292 294 296 298 299 300 302 302 304 306 305 306 306 305 306 306 308 308 308 309 308 308 308 309 308 307 305 306 305 305 303 301 300 299 299 298
266 273 279 283 285 290 292 293 295 298 299 301 302 303 305 306 306 306 306 306 307 308 309 309 310 310 310 310 310 310 310 309 307 306 308 309 309 308 311 308 304 301 299
275 279 282 285 288 289 293 296 298 300 300 302 304 305 305 306 306 306 306 308 310 310 310 311 311 311 311 312 312 312 310 310 309 309 312 313 313 313 315 316 317 313 310
278 280 284 286 288 293 297 299 300 301 302 303 303 304 306 306 306 307 309 312 312 312 312 312 312 312 313 313 313 311 313 313 311 314 317 316 319 318 317 316 315 315 308
278 282 283 288 292 296 298 299 300 301 303 304 305 306 306 307 309 312 314 314 314 314 314 313 314 314 315 313 313 314 314 311 313 315 317 319 321 320 324 328 326 327 318
279 282 287 291 294 296 298 300 301 303 304 304 306 307 308 311 314 315 315 316 317 316 316 315 315 315 314 314 315 316 314 314 315 317 320 321 323 328 334 338 335 334 325
282 287 290 292 295 298 299 301 302 303 304 306 307 310 313 315 315 316 319 320 318 317 316 316 316 317 316 316 318 318 318 318 319 319 320 326 330 333 335 339 342 343 340
286 289 293 296 297 298 299 301 302 304 306 308 311 314 316 315 319 322 322 320 318 317 318 318 317 318 318 318 320 321 322 320 318 318 320 326 333 337 339 341 343 343 340
290 293 294 296 297 299 301 302 305 307 309 312 314 315 317 319 321 323 321 319 319 320 320 319 319 319 318 322 323 324 322 320 319 323 326 331 335 338 339 338 339 338 341
290 292 294 297 299 301 303 305 306 310 312 314 316 318 320 321 321 321 321 320 321 321 321 320 321 319 320 322 324 324 321 320 320 322 327 333 336 335 335 335 338 341 341
292 295 297 299 301 303 305 308 311 312 314 316 317 320 322 320 321 323 322 323 322 322 321 321 321 320 323 323 324 324 321 320 322 327 330 330 331 329 332 336 341 346 343
295 297 300 302 305 306 308 310 311 314 316 317 319 320 321 322 324 323 324 322 322 322 322 321 319 321 322 324 325 325 324 326 329 326 328 328 330 327 329 332 339 345 349
298 301 304 306 307 309 310 312 315 317 318 319 319 320 321 323 323 324 324 324 323 324 322 322 320 322 325 325 325 325 325 325 325 326 332 335 333 333 330 330 334 343 351
302 304 306 307 309 310 312 316 318 319 320 321 321 321 323 324 325 324 325 323 323 323 323 322 322 325 325 323 321 322 324 327 329 331 333 334 332 334 332 326 328 340 354
305 306 307 309 309 312 315 316 318 320 321 321 321 322 324 325 324 324 324 324 323 323 326 325 326 326 324 323 324 326 326 327 325 321 321 322 329 330 339 329 325 335 357
306 307 308 310 312 314 316 317 320 321 321 320 321 323 324 323 323 324 324 323 324 326 330 330 328 327 328 329 327 325 324 324 322 322 322 322 325 331 338 337 324 336 359
307 308 309 311 314 316 318 319 319 320 321 322 323 323 324 323 322 322 324 324 327 325 329 330 332 333 330 328 327 325 323 324 327 329 332 338 337 336 337 337 333 339 347
308 308 311 314 316 318 318 319 320 321 323 323 324 324 322 323 321 321 322 324 324 329 336 337 335 334 331 329 327 325 323 324 325 332 342 343 342 343 345 341 341 345 334
310 313 314 316 317 318 319 320 321 323 323 324 325 323 324 323 323 323 322 322 330 339 343 342 339 337 337 333 327 323 323 327 334 351 352 354 2 4 357 352 351 350 340
314 314 316 317 318 319 319 321 323 324 324 325 324 323 322 323 324 327 325 332 352 351 348 349 355 352 343 337 333 331 338 349 6 6 5 8 9 7 4 359 358 356 353
315 318 319 318 318 319 321 324 324 324 325 324 324 323 321 323 325 325 330 360 3 11 10 6 359 353 349 347 358 9 17 24 17 20 16 11 6 1 358 357 360 6 7
318 318 318 318 319 322 324 324 324 325 324 326 325 323 323 322 322 328 7 17 32 30 20 11 8 8 11 16 25 26 24 23 31 20 10 2 358 357 1 5 5 7 10
318 319 318 320 323 324 324 323 325 324 326 325 325 326 323 321 318 21 38 49 54 38 27 22 21 23 30 35 35 32 28 28 15 4 358 358 357 359 358 352 348 341 337
319 319 320 323 324 323 324 325 324 326 326 324 326 327 323 143 111 80 63 73 55 39 31 29 30 30 32 33 32 29 25 21 17 16 11 9 10 8 4 360 355 343 323